Lid_Strength_Index
14 13 13 13 12 12 11 10 9 8 6 5 4 2 2 2 3 3 3 3 2 4 5 5 6 6 7 7 7 8 9 10 10 11 12 12 13 13 14 13 13 13 13
14 13 13 13 13 13 12 10 10 9 7 6 4 3 2 2 2 2 3 3 3 4 5 5 6 7 7 7 7 8 9 9 10 11 11 13 13 13 13 14 13 14 14
14 14 13 13 13 12 12 11 10 9 8 6 5 3 3 3 3 3 4 4 4 4 5 5 6 7 7 7 8 8 8 10 9 9 10 13 13 14 13 14 14 15 15
13 13 13 13 13 12 12 11 10 10 9 7 6 6 5 6 5 3 3 4 4 4 5 6 6 7 8 8 8 7 8 8 10 9 9 10 11 13 15 15 15 15 14
13 13 13 12 12 12 12 11 11 10 10 10 8 7 7 6 5 6 5 4 5 5 5 5 7 7 8 7 8 7 8 8 9 9 10 10 11 11 13 15 16 15 15
13 12 12 11 11 11 11 10 10 10 9 10 10 10 9 8 8 7 7 7 6 6 6 6 7 7 7 8 8 8 8 8 9 9 10 11 11 12 13 14 15 16 16
13 12 12 11 11 11 11 10 10 10 9 9 10 11 11 10 10 9 9 9 9 8 7 6 7 7 8 8 8 8 8 8 9 9 9 10 11 11 12 13 15 16 15
12 12 11 10 10 9 9 8 9 9 9 9 9 10 11 11 11 11 10 10 9 9 9 7 6 7 7 8 8 9 9 9 10 10 10 10 10 10 10 11 14 16 16
11 11 10 9 8 8 8 7 7 7 8 9 9 10 11 12 12 12 12 12 11 10 9 8 7 7 7 7 8 9 9 9 9 9 10 10 10 10 10 10 11 13 16
11 10 10 9 8 8 7 6 6 7 7 7 7 8 9 9 10 11 12 12 12 12 11 10 8 9 8 7 7 8 8 9 9 9 9 9 9 10 10 10 11 11 13
11 10 10 10 7 6 6 6 6 7 7 7 7 7 8 9 9 10 11 12 11 12 12 12 10 10 9 9 8 8 8 9 9 9 9 9 9 10 10 10 10 11 12
11 11 10 10 7 7 6 6 7 8 8 8 8 8 8 9 10 11 12 11 12 12 12 11 10 10 10 9 9 9 9 9 9 9 9 10 9 9 10 10 10 11 11
11 11 11 10 9 8 7 7 7 8 8 8 9 10 10 10 10 11 12 12 13 12 12 12 11 11 12 11 10 10 10 9 10 9 9 9 9 9 10 10 10 11 11
11 11 12 11 10 8 10 10 9 8 9 10 10 11 11 11 11 12 12 13 13 13 13 13 13 12 11 10 11 10 10 10 10 10 10 9 9 10 10 10 11 11 13
13 12 12 11 12 12 11 12 11 10 10 12 13 14 13 13 13 14 14 14 15 14 15 14 14 14 11 9 10 11 11 11 11 11 11 10 11 11 9 10 11 11 13
15 14 13 12 12 13 13 14 15 13 10 13 16 15 15 15 15 14 14 14 15 17 15 14 14 14 12 9 8 9 11 11 11 11 11 10 11 10 9 9 9 10 12
17 16 16 16 14 17 14 18 17 14 15 15 15 15 16 16 16 15 16 15 15 15 16 15 14 14 13 10 9 9 11 11 11 11 11 11 11 11 10 10 9 10 9
19 18 18 18 18 18 18 18 18 18 18 17 17 16 16 17 17 17 16 16 15 15 15 14 14 14 13 10 9 8 11 12 12 11 11 11 11 11 11 11 11 11 12
20 20 22 22 23 22 20 21 20 22 21 18 18 17 16 16 17 18 17 16 15 15 14 13 14 14 13 10 9 9 12 12 12 11 11 11 11 10 10 11 12 12 12
24 24 24 25 23 21 20 18 20 20 20 18 16 17 17 17 18 17 17 16 15 14 12 12 13 14 13 11 10 9 11 11 11 11 10 10 9 9 9 11 11 12 12
23 25 26 25 25 24 20 19 20 20 19 17 17 16 16 16 15 15 15 15 15 14 14 14 13 14 14 13 10 9 12 10 12 12 11 10 9 8 8 8 11 10 11
24 24 22 22 24 24 19 20 19 19 19 18 18 18 18 16 14 15 15 15 15 15 14 14 13 13 13 12 10 9 8 9 12 13 12 10 8 8 7 9 9 9 11
19 20 21 21 21 20 20 20 20 20 19 20 21 21 19 18 16 16 15 16 15 15 15 14 13 12 12 13 10 10 9 8 11 12 11 9 9 8 8 8 8 10 12
21 21 22 23 22 21 21 21 21 20 22 23 22 21 20 20 19 17 16 16 17 17 16 16 14 13 12 13 12 12 12 11 10 11 13 11 10 9 10 10 9 11 11
22 23 24 23 23 22 23 23 22 22 24 24 22 22 21 21 21 20 19 17 16 16 17 16 15 16 15 12 10 9 11 13 12 17 16 13 14 16 13 12 11 12 12
24 25 25 25 25 25 25 24 25 25 26 25 23 22 22 22 22 22 22 18 16 15 14 13 13 13 11 10 9 8 7 8 8 16 13 17 14 13 16 13 12 12 12